Location: Hains Lake
(37.8540°N, 99.8578°W)
Time: 00:34:10
(UTC+00:00)

Cosmos 1943 - Pass Details

Date: 11 December 2019
Orbit: 835 x 849 km, 71.0° (Epoch: 26 January)

Event Time Altitude Azimuth Distance (km) Brightness Sun altitude
Exits shadow 12:17:12 17° 328° (NNW) 1,994 4.7 -16.8°
Maximum altitude 12:21:30 63° 252° (WSW) 931 3.2 -16.0°
Drops below altitude 10° 12:27:01 10° 172° (S) 2,441 5.9 -14.9°
Sets 12:29:28 0° 169° (S) 3,373 6.7 -14.5°
